DW6061 Weather Reports


time (UTC)temp
C
wind
direction
speed
KPH
gust
KPH
rain 1hr
cm
rain 24hr
cm
rain mn
cm
humidity
%
barometer
mb
20260507051952 11 295 0.0 3.2 0.00 0.00 0.00 90 1017.4
20260507050952 11 326 0.0 3.2 0.00 0.00 0.00 90 1017.4
20260507045952 11 266 0.0 6.4 0.00 0.00 0.00 90 1017.4
20260507044952 12 291 1.6 4.8 0.00 0.00 0.00 89 1017.4
20260507043952 12 290 1.6 3.2 0.00 0.00 0.00 89 1017.3
20260507042951 12 328 1.6 4.8 0.00 0.00 0.00 89 1017.2
20260507041952 12 308 1.6 8.0 0.00 0.00 0.00 88 1017.1
20260507040952 12 286 3.2 8.0 0.00 0.00 0.00 88 1016.9
20260507035952 12 283 1.6 6.4 0.00 0.00 0.00 87 1016.8
20260507034951 12 266 1.6 4.8 0.00 0.00 0.00 86 1016.9
20260507033951 13 261 0.0 4.8 0.00 0.00 0.00 86 1016.7
20260507032951 13 312 1.6 8.0 0.00 0.00 0.00 85 1016.7
20260507032012 13 279 1.6 4.8 0.00 0.00 0.00 84 1016.7
20260507030952 14 253 1.6 4.8 0.00 0.00 0.00 83 1016.5
20260507025951 14 294 1.6 6.4 0.00 0.00 0.00 81 1016.4
20260507025013 15 285 1.6 4.8 0.00 0.00 0.00 80 1016.2
20260507023952 15 272 1.6 6.4 0.00 0.00 0.00 78 1016.1
20260507023012 16 297 1.6 4.8 0.00 0.00 0.00 77 1016.1
20260507021951 17 261 1.6 4.8 0.00 0.00 0.00 75 1016.0
20260507020952 17 218 1.6 6.4 0.00 0.00 0.00 74 1016.0
20260507015952 18 250 1.6 9.7 0.00 0.00 0.00 72 1015.9
20260507014952 18 253 1.6 9.7 0.00 0.00 0.00 71 1015.9
20260507013951 19 265 1.6 8.0 0.00 0.00 0.00 70 1015.9
20260507012954 19 285 3.2 6.4 0.00 0.00 0.00 68 1015.9
20260507012014 20 298 3.2 8.0 0.00 0.00 0.00 68 1015.9
20260507011014 20 183 1.6 12.9 0.00 0.00 0.00 67 1015.9
20260507005954 20 276 3.2 8.0 0.00 0.00 0.00 65 1015.8
20260507004953 21 174 1.6 8.0 0.00 0.00 0.00 64 1015.7
20260507003953 21 333 3.2 9.7 0.00 0.00 0.00 62 1015.6
20260507002954 22 264 1.6 11.3 0.00 0.00 0.00 61 1015.6
20260507002014 23 293 1.6 9.7 0.00 0.00 0.00 59 1015.5
20260507000954 23 267 1.6 9.7 0.00 0.00 0.00 59 1015.6
20260506235955 23 229 1.6 11.3 0.00 0.00 0.00 58 1015.4
20260506234955 24 224 1.6 8.0 0.00 0.00 0.00 57 1015.4
20260506233954 24 226 1.6 11.3 0.00 0.00 0.00 56 1015.5
20260506232954 25 295 3.2 8.0 0.00 0.00 0.00 55 1015.6
20260506232012 25 37 1.6 4.8 0.00 0.00 0.00 55 1015.5
20260506230955 25 186 1.6 6.4 0.00 0.00 0.00 54 1015.6
20260506225954 26 241 3.2 11.3 0.00 0.00 0.00 53 1015.7
20260506224954 26 153 1.6 6.4 0.00 0.00 0.00 54 1015.7
20260506223955 25 207 1.6 6.4 0.00 0.00 0.00 55 1015.8
20260506222954 25 167 4.8 12.9 0.00 0.00 0.00 54 1015.9
20260506221954 24 175 3.2 12.9 0.00 0.00 0.00 54 1015.9
20260506221014 25 161 4.8 12.9 0.00 0.00 0.00 55 1015.9
20260506215953 24 156 6.4 17.7 0.00 0.00 0.00 54 1016.1
20260506214954 25 177 4.8 11.3 0.00 0.00 0.00 55 1016.2
20260506213954 23 141 6.4 14.5 0.00 0.00 0.00 56 1016.4
20260506212954 23 173 4.8 11.3 0.00 0.00 0.00 55 1016.5
20260506211954 24 142 4.8 12.9 0.00 0.00 0.00 54 1016.6
20260506211015 24 162 3.2 11.3 0.00 0.00 0.00 55 1016.6
20260506205954 25 151 4.8 11.3 0.00 0.00 0.00 54 1016.7
20260506204954 23 149 4.8 16.1 0.00 0.00 0.00 55 1016.7
20260506203952 24 155 4.8 9.7 0.00 0.00 0.00 57 1016.8
20260506202954 23 142 6.4 16.1 0.00 0.00 0.00 57 1017.0
20260506201954 23 165 6.4 12.9 0.00 0.00 0.00 57 1017.2
20260506200954 23 152 1.6 4.8 0.00 0.00 0.00 58 1017.2
20260506195954 23 218 1.6 4.8 0.00 0.00 0.00 59 1017.3
20260506194954 24 192 1.6 4.8 0.00 0.00 0.00 55 1017.4
20260506193955 23 206 1.6 4.8 0.00 0.00 0.00 57 1017.4
20260506192954 23 212 1.6 4.8 0.00 0.00 0.00 59 1017.5
20260506191952 21 231 0.0 3.2 0.00 0.00 0.00 59 1017.6
20260506190954 21 228 1.6 6.4 0.00 0.00 0.00 62 1017.7
20260506185955 21 224 1.6 8.0 0.00 0.00 0.00 62 1017.7
20260506184954 21 216 3.2 4.8 0.00 0.00 0.00 60 1017.7
20260506183954 21 155 3.2 6.4 0.00 0.00 0.00 62 1017.8
20260506182954 21 0.0 0.0 0.00 0.00 0.00 61 1017.9
20260506181954 20 0.0 0.0 0.00 0.00 0.00 63 1017.9
20260506180954 20 0.0 0.0 0.00 0.00 0.00 65 1018.0
20260506175952 20 0.0 0.0 0.00 0.00 0.00 66 1018.0
20260506174954 19 0.0 0.0 0.00 0.00 0.00 70 1018.0
20260506173954 17 0.0 0.0 0.00 0.00 0.00 73 1018.0
20260506172954 17 0.0 0.0 0.00 0.00 0.00 71 1018.0
20260506172014 17 0.0 0.0 0.00 0.00 0.00 72 1018.1
20260506170954 17 0.0 0.0 0.00 0.00 0.00 74 1018.1
20260506165954 17 0.0 0.0 0.00 0.00 0.00 74 1018.1
20260506164954 16 0.0 0.0 0.00 0.00 0.00 76 1018.2
20260506162954 15 0.0 0.0 0.00 0.00 0.00 77 1018.3
20260506162035 15 0.0 0.0 0.00 0.00 0.00 81 1018.2
20260506160954 14 0.0 0.0 0.00 0.00 0.00 82 1018.3
20260506155954 13 0.0 0.0 0.00 0.00 0.00 84 1018.3
20260506154954 13 0.0 0.0 0.00 0.00 0.00 85 1018.3
20260506153954 13 0.0 0.0 0.00 0.00 0.00 85 1018.3
20260506152954 13 0.0 0.0 0.00 0.00 0.00 85 1018.3
20260506151953 12 0.0 0.0 0.00 0.00 0.00 86 1018.2
20260506150954 12 0.0 0.0 0.00 0.00 0.00 87 1018.3
20260506150034 12 0.0 0.0 0.00 0.00 0.00 88 1018.3
20260506144954 12 0.0 0.0 0.00 0.00 0.00 89 1018.3
20260506143954 12 0.0 0.0 0.00 0.00 0.00 90 1018.4
20260506142954 11 0.0 0.0 0.00 0.00 0.00 91 1018.4
20260506141954 11 0.0 0.0 0.00 0.00 0.00 91 1018.3
20260506140954 11 0.0 0.0 0.00 0.00 0.00 92 1018.2
20260506140013 11 0.0 0.0 0.00 0.00 0.00 93 1018.1
20260506134954 10 0.0 0.0 0.00 0.00 0.00 93 1017.9
20260506133955 10 0.0 0.0 0.00 0.00 0.00 93 1017.8
20260506132954 10 0.0 0.0 0.00 0.00 0.00 93 1017.6
20260506131954 10 0.0 0.0 0.00 0.00 0.00 92 1017.6
20260506130952 10 0.0 0.0 0.00 0.00 0.00 92 1017.5
20260506125954 10 0.0 0.0 0.00 0.00 0.00 92 1017.4
20260506124954 10 0.0 0.0 0.00 0.00 0.00 92 1017.4
20260506124013 10 0.0 0.0 0.00 0.00 0.00 92 1017.3
20260506123014 11 0.0 0.0 0.00 0.00 0.00 92 1017.3
20260506121955 11 0.0 0.0 0.00 0.00 0.00 91 1017.2
20260506120954 11 0.0 0.0 0.00 0.00 0.00 91 1017.1
20260506115954 11 0.0 0.0 0.00 0.00 0.00 91 1017.0
20260506114952 11 0.0 0.0 0.00 0.00 0.00 91 1017.0
20260506113954 11 0.0 0.0 0.00 0.00 0.00 91 1017.1
20260506112954 11 0.0 0.0 0.00 0.00 0.00 91 1017.1
20260506111953 11 0.0 0.0 0.00 0.00 0.00 91 1017.0
20260506110955 11 0.0 0.0 0.00 0.00 0.00 91 1016.9
20260506105954 11 0.0 0.0 0.00 0.00 0.00 91 1016.9
20260506104954 11 0.0 0.0 0.00 0.00 0.00 91 1016.8
20260506103954 11 0.0 0.0 0.00 0.00 0.00 91 1016.8
20260506103014 11 0.0 0.0 0.00 0.00 0.00 91 1016.8
20260506101954 11 0.0 0.0 0.00 0.00 0.00 91 1016.8
20260506100955 11 0.0 0.0 0.00 0.00 0.00 91 1016.9
20260506095953 11 0.0 0.0 0.00 0.00 0.00 91 1016.8
20260506094954 11 0.0 0.0 0.00 0.00 0.00 91 1016.8
20260506093954 11 0.0 0.0 0.00 0.00 0.00 91 1017.0
20260506092955 11 0.0 0.0 0.00 0.00 0.00 91 1017.0
20260506092014 11 349 0.0 4.8 0.00 0.00 0.00 91 1016.9
20260506090952 11 346 1.6 4.8 0.00 0.00 0.00 91 1016.8
20260506085954 11 356 1.6 3.2 0.00 0.00 0.00 91 1016.7
20260506085015 11 342 0.0 3.2 0.00 0.00 0.00 90 1016.8
20260506083953 11 325 0.0 3.2 0.00 0.00 0.00 90 1016.8
20260506082954 11 342 0.0 3.2 0.00 0.00 0.00 90 1016.8
20260506082014 11 350 1.6 4.8 0.00 0.00 0.00 90 1016.8
20260506081014 11 352 1.6 3.2 0.00 0.00 0.00 89 1016.8
20260506072954 11 349 0.0 3.2 0.00 0.00 0.00 88 1016.5
20260506071953 11 352 1.6 3.2 0.00 0.00 0.00 88 1016.6
20260506070954 11 316 0.0 3.2 0.00 0.00 0.00 88 1016.5
20260506061954 12 297 0.0 6.4 0.00 0.00 0.00 87 1016.2
20260506060954 12 302 0.0 3.2 0.00 0.00 0.00 87 1016.1